Hourly Data Report for January 16, 2013

BAGOTVILLE A
QUEBEC

48°20'00.000" N
71°00'00.000" W
159.10 m
7060400
71727
YBG

Download Data

Hourly Data (January 2013)
Hourly Data Report for January 16, 2013
TIME
LST
Temp Definition
°C
Dew Point Definition
°C
Rel Hum Definition
%
Precip. Amount Definition
mm

Wind Dir Definition
10's deg

Wind Spd Definition
km/h
Visibility Definition
km
Stn Press Definition
kPa
Hmdx Definition


Wind Chill Definition


Weather Definition


00:00 -6.1 -11.6 65   27 17 24.1 100.05   -12 Mostly Cloudy
01:00 -7.5 -11.0 76   28 7 24.1 100.07   -11 Snow Showers
02:00 -8.7 -13.0 71   7 6 24.1 100.08   -12 Mainly Clear
03:00 -11.1 -13.7 81   14 7 24.1 99.99   -15 Clear
04:00 -11.0 -13.2 84   9 7 24.1 99.90   -15 Clear
05:00 -12.4 -15.3 79   12 11 24.1 99.81   -18 Clear
06:00 -12.5 -15.4 79   15 7 24.1 99.69   -17 Clear
07:00 -13.1 -15.6 81   13 7 32.2 99.66   -18 Mainly Clear
08:00 -12.6 -14.6 85   12 11 40.2 99.66   -19 Mostly Cloudy
09:00 -12.0 -13.9 86   11 11 40.2 99.62   -18 Mostly Cloudy
10:00 -9.5 -12.7 77   9 9 40.2 99.50   -14 Mainly Clear
11:00 -6.9 -12.3 65   9 13 40.2 99.34   -12 Mainly Clear
12:00 -5.4 -11.9 60   11 11 40.2 99.16   -10 Mainly Clear
13:00 -1.4 -9.9 52   23 24 40.2 99.00   -8 Mainly Clear
14:00 -0.8 -8.6 55   23 17 40.2 98.84   -6 Mostly Cloudy
15:00 -1.4 -8.7 58   20 30 40.2 98.72   -8 Mostly Cloudy
16:00 -1.1 -9.4 53   21 15 40.2 98.67   -6 Mostly Cloudy
17:00 -2.0 -9.3 57   18 11 40.2 98.56   -6 Mostly Cloudy
18:00 -2.3 -10.1 55   27 11LegendEE 40.2 98.45   -6LegendEE Mostly Cloudy
19:00 -3.0 -5.4 83   20 13 40.2 98.37   -8 Mostly Cloudy
20:00 -2.7 -9.1 61   18 13 40.2 98.31   -7 Cloudy
21:00 -3.0 -7.7 70   18 6 40.2 98.25   -5 Cloudy
22:00 -3.6 -8.2 70   18 6 40.2 98.20   -6 Cloudy
23:00 -4.6 -8.4 75   13 7 40.2 98.16   -8 Cloudy

Notes on Data Quality.

Legend

  • E = Estimated
  • M = Missing
  • NA = Not Available*
  • [empty] = Indicates an unobserved value
Date modified: